�������l�o���
Date,Time,MP-1(��Sv/h),MP-2(��Sv/h),MP-3(��Sv/h),MP-4(��Sv/h),MP-5(��Sv/h),MP-6(��Sv/h),MP-7(��Sv/h),����,����(m/s),���J
2023/06/02,00:00,0.150,0.135,0.216,0.208,0.212,0.119,0.077,��쐼,5.6,��
2023/06/02,00:10,0.150,0.135,0.218,0.209,0.215,0.120,0.078,��,6.4,�L
2023/06/02,00:20,0.151,0.135,0.218,0.206,0.211,0.120,0.078,��,5.7,�L
2023/06/02,00:30,0.150,0.135,0.216,0.209,0.213,0.121,0.076,��,5.2,�L
2023/06/02,00:40,0.150,0.135,0.217,0.207,0.212,0.120,0.076,��,5.4,�L
2023/06/02,00:50,0.151,0.136,0.216,0.209,0.212,0.121,0.078,��,4.9,�L
2023/06/02,01:00,0.151,0.136,0.219,0.209,0.214,0.120,0.077,��,5.8,�L
2023/06/02,01:10,0.151,0.136,0.217,0.208,0.213,0.121,0.078,��,8.1,�L
2023/06/02,01:20,0.150,0.138,0.219,0.211,0.215,0.122,0.078,��,8.2,�L
2023/06/02,01:30,0.152,0.138,0.219,0.210,0.215,0.123,0.079,��,9.2,�L
2023/06/02,01:40,0.152,0.138,0.221,0.212,0.216,0.123,0.079,��,8.6,�L
2023/06/02,01:50,0.153,0.138,0.220,0.211,0.216,0.124,0.080,��,8.9,�L
2023/06/02,02:00,0.153,0.140,0.221,0.212,0.215,0.123,0.081,��,9.3,�L
2023/06/02,02:10,0.154,0.138,0.220,0.211,0.217,0.124,0.080,��,9.3,�L
2023/06/02,02:20,0.154,0.140,0.221,0.212,0.215,0.123,0.081,��,7.9,�L
2023/06/02,02:30,0.153,0.139,0.220,0.211,0.217,0.126,0.082,��,8.2,�L
2023/06/02,02:40,0.155,0.139,0.221,0.212,0.215,0.125,0.082,��,6.1,�L
2023/06/02,02:50,0.154,0.139,0.218,0.210,0.217,0.125,0.083,��,7.3,�L
2023/06/02,03:00,0.154,0.139,0.220,0.211,0.214,0.126,0.083,��,8.1,�L
2023/06/02,03:10,0.153,0.139,0.219,0.209,0.216,0.124,0.083,��,7.4,�L
2023/06/02,03:20,0.154,0.139,0.219,0.209,0.213,0.124,0.082,��,6.6,�L
2023/06/02,03:30,0.153,0.138,0.218,0.210,0.215,0.124,0.082,��,6.9,�L
2023/06/02,03:40,0.155,0.138,0.218,0.211,0.212,0.124,0.082,��,7.2,�L
2023/06/02,03:50,0.152,0.137,0.217,0.208,0.214,0.124,0.082,��,6.9,�L
2023/06/02,04:00,0.153,0.138,0.216,0.208,0.212,0.124,0.082,��,8.2,�L
2023/06/02,04:10,0.151,0.136,0.215,0.207,0.213,0.123,0.081,��,8.1,�L
2023/06/02,04:20,0.153,0.138,0.215,0.207,0.211,0.123,0.082,��,8.7,�L
2023/06/02,04:30,0.150,0.136,0.214,0.207,0.212,0.122,0.082,��,7.9,�L
2023/06/02,04:40,0.151,0.137,0.214,0.207,0.213,0.122,0.081,��,9.3,�L
2023/06/02,04:50,0.151,0.136,0.214,0.206,0.211,0.123,0.081,��,8.2,�L
2023/06/02,05:00,0.151,0.137,0.214,0.206,0.213,0.122,0.081,��,8.7,�L
2023/06/02,05:10,0.152,0.137,0.214,0.205,0.211,0.123,0.081,��,9.0,�L
2023/06/02,05:20,0.150,0.137,0.213,0.206,0.213,0.122,0.081,��,8.7,�L
2023/06/02,05:30,0.151,0.136,0.213,0.205,0.211,0.123,0.080,��,9.2,�L
2023/06/02,05:40,0.150,0.137,0.212,0.205,0.213,0.122,0.080,��,8.3,�L
2023/06/02,05:50,0.150,0.134,0.212,0.203,0.210,0.120,0.080,��,6.4,�L
2023/06/02,06:00,0.148,0.135,0.211,0.203,0.212,0.121,0.079,��,7.1,�L
2023/06/02,06:10,0.149,0.134,0.210,0.203,0.211,0.120,0.079,��,6.8,�L
2023/06/02,06:20,0.148,0.135,0.210,0.202,0.211,0.120,0.079,��,6.7,�L
2023/06/02,06:30,0.148,0.133,0.211,0.203,0.211,0.120,0.078,��,7.2,�L
2023/06/02,06:40,0.148,0.133,0.210,0.201,0.209,0.120,0.078,��,7.1,�L
2023/06/02,06:50,0.147,0.133,0.210,0.201,0.209,0.119,0.077,��,8.8,�L
2023/06/02,07:00,0.148,0.134,0.209,0.200,0.207,0.119,0.077,��,9.0,�L
2023/06/02,07:10,0.148,0.131,0.209,0.201,0.209,0.119,0.077,��,8.5,�L
2023/06/02,07:20,0.147,0.132,0.210,0.199,0.209,0.119,0.077,��,8.4,�L
2023/06/02,07:30,0.146,0.132,0.209,0.201,0.209,0.118,0.076,��,8.2,�L
2023/06/02,07:40,0.147,0.132,0.210,0.200,0.208,0.118,0.077,��,7.5,�L
2023/06/02,07:50,0.146,0.133,0.209,0.201,0.208,0.118,0.077,��,8.8,�L
2023/06/02,08:00,0.147,0.132,0.209,0.201,0.209,0.118,0.076,��,10.1,�L
2023/06/02,08:10,0.146,0.132,0.209,0.200,0.207,0.119,0.076,��,10.3,�L
2023/06/02,08:20,0.146,0.132,0.209,0.201,0.210,0.118,0.076,��,11.4,�L
2023/06/02,08:30,0.147,0.132,0.207,0.200,0.206,0.118,0.076,��쓌,10.9,�L
2023/06/02,08:40,0.145,0.131,0.208,0.201,0.210,0.118,0.076,��쓌,11.2,�L
2023/06/02,08:50,0.147,0.131,0.208,0.199,0.207,0.117,0.075,��쓌,11.5,�L
2023/06/02,09:00,0.145,0.131,0.209,0.201,0.208,0.118,0.076,��,9.2,�L
2023/06/02,09:10,0.147,0.132,0.208,0.200,0.208,0.117,0.076,��쓌,9.8,�L
2023/06/02,09:20,0.146,0.131,0.208,0.200,0.208,0.118,0.076,��,10.9,�L
2023/06/02,09:30,0.146,0.133,0.208,0.200,0.209,0.118,0.077,��,9.0,�L
2023/06/02,09:40,0.146,0.132,0.209,0.199,0.207,0.118,0.077,��,7.0,�L
2023/06/02,09:50,0.146,0.133,0.208,0.200,0.209,0.119,0.076,��,7.3,�L
2023/06/02,10:00,0.149,0.133,0.208,0.200,0.207,0.118,0.077,��,7.0,�L
2023/06/02,10:10,0.146,0.132,0.208,0.201,0.209,0.119,0.078,��쓌,7.0,�L
2023/06/02,10:20,0.148,0.133,0.208,0.199,0.208,0.118,0.078,��쓌,7.7,�L
2023/06/02,10:30,0.147,0.132,0.209,0.201,0.207,0.120,0.077,��쓌,6.9,�L
2023/06/02,10:40,0.147,0.133,0.207,0.199,0.208,0.119,0.078,��쓌,5.0,�L
2023/06/02,10:50,0.147,0.131,0.208,0.199,0.206,0.119,0.078,��쓌,5.8,�L
2023/06/02,11:00,0.146,0.133,0.206,0.199,0.209,0.119,0.077,��,4.4,�L
2023/06/02,11:10,0.148,0.132,0.208,0.198,0.207,0.117,0.078,��,3.0,�L
2023/06/02,11:20,0.146,0.133,0.206,0.200,0.207,0.118,0.077,��쐼,2.5,�L
2023/06/02,11:30,0.146,0.132,0.206,0.199,0.208,0.117,0.078,��쐼,1.6,�L
2023/06/02,11:40,0.145,0.133,0.207,0.199,0.205,0.117,0.077,��쐼,2.0,�L
2023/06/02,11:50,0.144,0.132,0.205,0.198,0.210,0.118,0.077,��,2.1,�L
2023/06/02,12:00,0.146,0.131,0.206,0.198,0.208,0.116,0.077,��쓌,2.3,�L
2023/06/02,12:10,0.145,0.131,0.205,0.198,0.206,0.118,0.077,��쓌,2.8,�L
2023/06/02,12:20,0.145,0.131,0.205,0.197,0.208,0.116,0.076,�쓌,2.9,�L
2023/06/02,12:30,0.146,0.130,0.205,0.198,0.206,0.115,0.076,��쓌,5.4,�L
2023/06/02,12:40,0.144,0.131,0.203,0.197,0.206,0.116,0.076,��,4.8,�L
2023/06/02,12:50,0.145,0.130,0.205,0.195,0.207,0.115,0.076,��,4.8,�L
2023/06/02,13:00,0.143,0.131,0.204,0.196,0.205,0.116,0.075,��쐼,5.3,�L
2023/06/02,13:10,0.143,0.130,0.204,0.195,0.208,0.116,0.076,��,5.9,�L
2023/06/02,13:20,0.145,0.130,0.204,0.196,0.205,0.115,0.075,��,6.9,�L
2023/06/02,13:30,0.143,0.130,0.203,0.196,0.205,0.116,0.076,��,7.4,�L
2023/06/02,13:40,0.144,0.129,0.205,0.194,0.206,0.116,0.075,��,7.7,�L
2023/06/02,13:50,0.145,0.130,0.204,0.196,0.205,0.115,0.076,��,8.1,�L
2023/06/02,14:00,0.143,0.129,0.203,0.194,0.206,0.115,0.076,��,7.8,�L
2023/06/02,14:10,0.143,0.129,0.203,0.194,0.206,0.114,0.075,��,6.4,�L
2023/06/02,14:20,0.142,0.129,0.201,0.194,0.204,0.114,0.075,��,4.7,�L
2023/06/02,14:30,0.143,0.129,0.203,0.194,0.206,0.114,0.075,��,5.2,�L
2023/06/02,14:40,0.143,0.129,0.201,0.195,0.204,0.113,0.075,��쓌,7.1,�L
2023/06/02,14:50,0.141,0.128,0.202,0.193,0.203,0.113,0.075,��,7.3,�L
2023/06/02,15:00,0.142,0.129,0.202,0.194,0.205,0.113,0.075,��,7.1,�L
2023/06/02,15:10,0.141,0.129,0.201,0.193,0.204,0.114,0.075,��,5.3,�L
2023/06/02,15:20,0.142,0.128,0.202,0.193,0.205,0.114,0.074,��,6.9,�L
2023/06/02,15:30,0.142,0.129,0.200,0.194,0.204,0.112,0.075,��쓌,7.3,�L
2023/06/02,15:40,-,-,-,-,-,-,-,-,-,-
2023/06/02,15:50,0.142,0.128,0.200,0.192,0.205,0.113,0.073,��쐼,4.8,�L
2023/06/02,16:00,0.140,0.127,0.199,0.191,0.201,0.111,0.073,��쐼,6.6,�L
2023/06/02,16:10,0.140,0.127,0.199,0.189,0.205,0.112,0.074,�쐼,5.5,�L
2023/06/02,16:20,0.141,0.127,0.198,0.189,0.202,0.111,0.073,�쐼,6.0,�L
2023/06/02,16:30,0.138,0.126,0.197,0.186,0.200,0.110,0.074,�쐼,4.9,�L
2023/06/02,16:40,0.137,0.126,0.193,0.185,0.200,0.111,0.074,�쐼,4.0,�L
2023/06/02,16:50,0.135,0.126,0.194,0.184,0.199,0.110,0.074,��쓌,3.5,�L
2023/06/02,17:00,0.136,0.126,0.193,0.186,0.202,0.111,0.074,��쓌,2.8,�L
2023/06/02,17:10,0.136,0.127,0.196,0.187,0.202,0.111,0.074,��,4.7,�L
2023/06/02,17:20,0.137,0.128,0.196,0.188,0.203,0.112,0.074,��쓌,4.7,�L
2023/06/02,17:30,0.138,0.127,0.198,0.190,0.203,0.113,0.075,��쓌,5.6,�L
2023/06/02,17:40,0.137,0.129,0.198,0.190,0.203,0.112,0.075,��쓌,5.6,�L
2023/06/02,17:50,0.140,0.128,0.199,0.193,0.204,0.113,0.074,��,5.4,�L
2023/06/02,18:00,0.138,0.128,0.200,0.191,0.203,0.113,0.075,��,6.1,�L
2023/06/02,18:10,0.140,0.129,0.200,0.195,0.206,0.113,0.076,��,5.4,�L
2023/06/02,18:20,0.140,0.129,0.202,0.194,0.205,0.114,0.076,��,4.8,�L
2023/06/02,18:30,0.140,0.130,0.200,0.193,0.206,0.113,0.076,��,5.2,�L
2023/06/02,18:40,0.141,0.130,0.202,0.195,0.206,0.114,0.075,��,3.8,�L
2023/06/02,18:50,0.140,0.129,0.201,0.192,0.204,0.113,0.077,��,3.9,��
2023/06/02,19:00,0.141,0.129,0.202,0.195,0.206,0.112,0.075,��쐼,3.9,�L
2023/06/02,19:10,0.139,0.130,0.201,0.193,0.204,0.114,0.074,��쐼,4.6,�L
2023/06/02,19:20,0.141,0.127,0.202,0.194,0.205,0.112,0.075,��,5.9,��
2023/06/02,19:30,0.139,0.129,0.202,0.193,0.206,0.113,0.074,��,8.8,�L
2023/06/02,19:40,0.140,0.128,0.201,0.193,0.204,0.113,0.074,��,8.3,�L
2023/06/02,19:50,0.141,0.129,0.200,0.194,0.205,0.113,0.074,��,8.6,�L
2023/06/02,20:00,0.140,0.128,0.201,0.193,0.204,0.113,0.074,��,7.3,�L
2023/06/02,20:10,0.140,0.128,0.202,0.195,0.205,0.113,0.075,��,6.1,�L
2023/06/02,20:20,0.141,0.129,0.201,0.193,0.205,0.114,0.075,��쐼,3.2,�L
2023/06/02,20:30,0.140,0.128,0.200,0.194,0.203,0.113,0.074,��쐼,1.0,�L
2023/06/02,20:40,0.141,0.129,0.201,0.194,0.206,0.113,0.074,���쐼,1.3,�L
2023/06/02,20:50,0.139,0.128,0.201,0.193,0.204,0.114,0.075,-,CALM,�L
2023/06/02,21:00,0.142,0.129,0.202,0.195,0.207,0.113,0.074,��쐼,1.9,�L
2023/06/02,21:10,0.140,0.129,0.200,0.193,0.205,0.113,0.075,��,3.3,�L
2023/06/02,21:20,0.141,0.129,0.202,0.195,0.204,0.113,0.075,��쐼,5.3,�L
2023/06/02,21:30,0.141,0.128,0.201,0.194,0.207,0.113,0.075,��쐼,5.2,�L
2023/06/02,21:40,0.141,0.129,0.203,0.195,0.204,0.114,0.074,��쐼,4.5,�L
2023/06/02,21:50,0.141,0.129,0.202,0.195,0.206,0.114,0.075,��쐼,4.4,�L
2023/06/02,22:00,0.140,0.128,0.202,0.195,0.206,0.114,0.075,��쐼,5.1,�L
2023/06/02,22:10,0.142,0.130,0.202,0.196,0.206,0.114,0.075,��쐼,4.9,�L
2023/06/02,22:20,0.142,0.128,0.202,0.194,0.207,0.114,0.075,��쐼,3.6,�L
2023/06/02,22:30,0.141,0.129,0.203,0.195,0.205,0.115,0.075,��쐼,3.5,�L
2023/06/02,22:40,0.141,0.129,0.201,0.193,0.207,0.114,0.075,��쐼,4.0,�L
2023/06/02,22:50,0.141,0.129,0.204,0.195,0.205,0.114,0.075,��쐼,4.6,�L
2023/06/02,23:00,0.142,0.129,0.202,0.194,0.207,0.114,0.075,�쐼,4.3,�L
2023/06/02,23:10,0.140,0.129,0.204,0.195,0.206,0.115,0.075,��쐼,2.8,�L
2023/06/02,23:20,0.143,0.130,0.203,0.196,0.205,0.116,0.076,��,2.3,�L
2023/06/02,23:30,0.142,0.130,0.204,0.194,0.208,0.115,0.077,�쓌,3.3,�L
2023/06/02,23:40,0.142,0.130,0.204,0.197,0.205,0.115,0.076,�쓌,4.3,�L
2023/06/02,23:50,0.143,0.130,0.203,0.194,0.209,0.115,0.076,�쓌,2.4,�L
